AAL7181 MMUN-KJFK

Flight info

Callsign AAL7181
Flight time N/A
Altitude 18000
Route ROTGI2A ROTGI UM219 MYDIA M219 KNOST Q109 DFENC SAWED Q108 SIE CAMRN5
Aircraft B772/H-SDE1E3FGHIJ1J3J4J5M1P2RWXYZ/AA1DCD

Departure

Time N/A
Airport Cancún International Airport (MMUN)

Arrival

Time 2026-05-07 01:56
Airport John F. Kennedy International Airport (KJFK)
Time Latitude Longitude Altitude Speed Heading
2026-05-07 01:37 39.96309 -73.89933 16682 ft 346 kts 20°
2026-05-07 01:37 39.98426 -73.88441 16159 ft 347 kts 20°
2026-05-07 01:37 40.00545 -73.86942 15799 ft 346 kts 20°
2026-05-07 01:37 40.02590 -73.85258 15406 ft 352 kts 29°
2026-05-07 01:38 40.04590 -73.83301 14506 ft 371 kts 31°
2026-05-07 01:38 40.06677 -73.81211 13507 ft 389 kts 32°
2026-05-07 01:38 40.08862 -73.79021 12273 ft 408 kts 33°
2026-05-07 01:38 40.11063 -73.76811 11385 ft 407 kts 33°
2026-05-07 01:39 40.13164 -73.74697 11047 ft 391 kts 34°
2026-05-07 01:39 40.15138 -73.72709 10989 ft 369 kts 34°
2026-05-07 01:39 40.17123 -73.70709 10986 ft 346 kts 33°
2026-05-07 01:39 40.18984 -73.68837 11000 ft 335 kts 33°
2026-05-07 01:40 40.20834 -73.66982 10986 ft 334 kts 33°
2026-05-07 01:40 40.22681 -73.65129 10983 ft 334 kts 33°
2026-05-07 01:40 40.24529 -73.63273 10974 ft 335 kts 33°
2026-05-07 01:40 40.26365 -73.61425 10988 ft 333 kts 33°
2026-05-07 01:41 40.28200 -73.59577 10954 ft 331 kts 33°
2026-05-07 01:41 40.29819 -73.57444 10605 ft 336 kts 52°
2026-05-07 01:41 40.31065 -73.54857 10219 ft 338 kts 57°
2026-05-07 01:41 40.32276 -73.52219 9916 ft 337 kts 57°
2026-05-07 01:42 40.33479 -73.49617 9671 ft 333 kts 56°
2026-05-07 01:42 40.34960 -73.47337 9281 ft 328 kts 34°
2026-05-07 01:42 40.36940 -73.45997 8881 ft 316 kts 10°
2026-05-07 01:42 40.39022 -73.45247 8737 ft 307 kts
2026-05-07 01:43 40.41077 -73.44549 8446 ft 305 kts
2026-05-07 01:43 40.43128 -73.43865 8125 ft 303 kts
2026-05-07 01:43 40.45173 -73.43201 7822 ft 302 kts
2026-05-07 01:43 40.47200 -73.42543 7551 ft 299 kts
2026-05-07 01:44 40.49179 -73.41897 7473 ft 284 kts
2026-05-07 01:44 40.51041 -73.41271 7449 ft 269 kts
2026-05-07 01:44 40.52805 -73.40662 7441 ft 257 kts
2026-05-07 01:44 40.54511 -73.40060 7277 ft 253 kts
2026-05-07 01:45 40.56215 -73.39463 7045 ft 252 kts
2026-05-07 01:45 40.57902 -73.38869 6868 ft 249 kts
2026-05-07 01:45 40.59584 -73.38287 6626 ft 249 kts
2026-05-07 01:45 40.61262 -73.37705 6411 ft 248 kts
2026-05-07 01:46 40.62916 -73.37121 6241 ft 244 kts
2026-05-07 01:46 40.64556 -73.37000 5905 ft 232 kts 338°
2026-05-07 01:46 40.66055 -73.37728 5549 ft 228 kts 327°
2026-05-07 01:46 40.67474 -73.38558 5451 ft 220 kts 327°
2026-05-07 01:47 40.68875 -73.39395 5205 ft 220 kts 327°
2026-05-07 01:47 40.70269 -73.40236 4971 ft 220 kts 327°
2026-05-07 01:47 40.71648 -73.41081 4791 ft 217 kts 327°
2026-05-07 01:47 40.73031 -73.41933 4518 ft 218 kts 327°
2026-05-07 01:48 40.74402 -73.42775 4324 ft 216 kts 327°
2026-05-07 01:48 40.75764 -73.43622 4092 ft 216 kts 327°
2026-05-07 01:48 40.77101 -73.44462 3996 ft 210 kts 327°
2026-05-07 01:48 40.78435 -73.45312 3987 ft 214 kts 325°
2026-05-07 01:49 40.79545 -73.46519 3940 ft 203 kts 301°
2026-05-07 01:49 40.80322 -73.48078 3663 ft 204 kts 297°
2026-05-07 01:49 40.81055 -73.49643 3577 ft 192 kts 297°
2026-05-07 01:49 40.81679 -73.50959 3546 ft 176 kts 297°
2026-05-07 01:50 40.82369 -73.52379 3308 ft 172 kts 297°
2026-05-07 01:50 40.82837 -73.53790 2986 ft 167 kts 271°
2026-05-07 01:50 40.82512 -73.55238 2616 ft 169 kts 240°
2026-05-07 01:50 40.81837 -73.56497 2350 ft 168 kts 237°
2026-05-07 01:51 40.81143 -73.57742 2062 ft 168 kts 237°
2026-05-07 01:51 40.80458 -73.58961 1993 ft 166 kts 237°
2026-05-07 01:51 40.79745 -73.60230 1976 ft 172 kts 237°
2026-05-07 01:51 40.79035 -73.61498 1973 ft 172 kts 237°
2026-05-07 01:52 40.78318 -73.62775 1982 ft 173 kts 237°
2026-05-07 01:52 40.77606 -73.64046 1987 ft 171 kts 237°
2026-05-07 01:52 40.76978 -73.65369 1990 ft 169 kts 243°
2026-05-07 01:52 40.76171 -73.66483 1981 ft 170 kts 217°
2026-05-07 01:53 40.75138 -73.67231 1983 ft 172 kts 214°
2026-05-07 01:53 40.74132 -73.67992 1979 ft 155 kts 216°
2026-05-07 01:53 40.73243 -73.68689 1975 ft 144 kts 217°
2026-05-07 01:53 40.72382 -73.69363 1793 ft 138 kts 217°
2026-05-07 01:54 40.71587 -73.69983 1630 ft 131 kts 217°
2026-05-07 01:54 40.70795 -73.70603 1469 ft 132 kts 217°
2026-05-07 01:54 40.70000 -73.71222 1301 ft 132 kts 216°
2026-05-07 01:54 40.69198 -73.71849 1121 ft 135 kts 214°
2026-05-07 01:55 40.68389 -73.72478 932 ft 134 kts 214°
2026-05-07 01:55 40.67586 -73.73105 758 ft 134 kts 213°
2026-05-07 01:55 40.66786 -73.73728 576 ft 133 kts 212°
2026-05-07 01:55 40.65983 -73.74352 387 ft 133 kts 212°
2026-05-07 01:56 40.65178 -73.74984 210 ft 134 kts 211°
2026-05-07 01:56 40.64377 -73.75601 63 ft 134 kts 210°
2026-05-07 01:56 40.63631 -73.76185 29 ft 105 kts 210°
2026-05-07 01:56 40.63160 -73.76553 28 ft 49 kts 210°
2026-05-07 01:57 40.62998 -73.76730 28 ft 25 kts 234°
2026-05-07 01:57 40.62930 -73.76942 28 ft 23 kts 274°
2026-05-07 01:57 40.63003 -73.77138 28 ft 24 kts 301°
2026-05-07 01:57 40.63093 -73.77332 28 ft 25 kts 300°
2026-05-07 01:58 40.63184 -73.77536 28 ft 26 kts 301°
2026-05-07 01:58 40.63278 -73.77745 28 ft 27 kts 300°
2026-05-07 01:58 40.63376 -73.77962 28 ft 27 kts 300°
2026-05-07 01:58 40.63473 -73.78185 28 ft 28 kts 299°
2026-05-07 01:59 40.63576 -73.78411 28 ft 29 kts 301°
2026-05-07 01:59 40.63682 -73.78642 28 ft 29 kts 301°
2026-05-07 01:59 40.63787 -73.78880 28 ft 30 kts 299°
2026-05-07 01:59 40.63897 -73.79117 28 ft 30 kts 300°
2026-05-07 02:00 40.64005 -73.79358 28 ft 30 kts 300°
2026-05-07 02:00 40.64082 -73.79493 28 ft 14 kts 333°
2026-05-07 02:00 40.64186 -73.79505 28 ft 16 kts
2026-05-07 02:00 40.64306 -73.79496 28 ft 18 kts
2026-05-07 02:01 40.64437 -73.79495 28 ft 19 kts 355°
2026-05-07 02:01 40.64576 -73.79518 28 ft 20 kts 342°
2026-05-07 02:01 40.64693 -73.79610 28 ft 9 kts 324°
2026-05-07 02:01 40.64739 -73.79608 28 ft 8 kts 36°
2026-05-07 02:02 40.64778 -73.79538 28 ft 11 kts 60°
2026-05-07 02:02 40.64820 -73.79440 28 ft 13 kts 60°
2026-05-07 02:02 40.64862 -73.79341 28 ft 7 kts 64°
2026-05-07 02:02 40.64851 -73.79300 28 ft 6 kts 153°
2026-05-07 02:03 40.64811 -73.79272 28 ft 3 kts 150°
2026-05-07 02:03 40.64809 -73.79271 28 ft 0 kts 150°